This demonstration page uses our WeatherBlox Daily Observations layout. Learn more.

Left ArrowRight Arrow

39.01783, -85.05884

Hourly Observations for February 28, 2019

Temp ( °F °C ) Dew Point ( °F °C ) Humidity (%) Winds ( mph kmh ) Pressure ( in mb ) Visibility ( mi km ) Precip ( " mm )
12:52 am 00:52 Cloudy 35 1.7 27 -2.8 72 72 NNW 12 19 30.12 1020 8 13 0.00 0.00
1:52 am 01:52 Cloudy 34 1.1 26 -3.3 73 73 N 12 19 30.13 1020 7 11 0.00 0.00
2:52 am 02:52 Cloudy 33 0.6 25 -3.9 72 72 N 12 19 30.14 1021 7 11 0.00 0.00
3:52 am 03:52 Cloudy 32 0 23 -5 69 69 N 12 19 30.14 1021 7 11 0.00 0.00
4:52 am 04:52 Cloudy 32 0 23 -5 69 69 NNE 12 19 30.14 1021 7 11 0.00 0.00
5:52 am 05:52 Cloudy with Haze 32 0 23 -5 69 69 NNE 12 19 30.16 1022 6 10 0.00 0.00
6:52 am 06:52 Cloudy 32 0 23 -5 69 69 NNE 8 13 30.17 1022 7 11 0.00 0.00
7:52 am 07:52 Cloudy with Mist and Fog 32 0 22 -5.6 66 66 NE 12 19 30.17 1022 6 10 0.00 0.00
8:52 am 08:52 Cloudy 33 0.6 23 -5 66 66 ENE 12 19 30.18 1022 7 11 0.00 0.00
9:52 am 09:52 Cloudy 33 0.6 22 -5.6 64 64 ENE 15 24 30.18 1022 8 13 0.00 0.00
10:52 am 10:52 Cloudy 34 1.1 21 -6.1 59 59 ENE 14 22 30.17 1022 9 14 0.00 0.00
11:09 am 11:09 Cloudy 34 1.1 22 -5.6 61 61 E 12 19 30.20 1023 9 14 0.00 0.00
11:52 am 11:52 Cloudy 34 1.1 22 -5.6 61 61 E 9 15 30.16 1022 10 16 0.00 0.00
12:52 pm 12:52 Cloudy 36 2.2 21 -6.1 55 55 E 9 15 30.14 1021 10 16 0.00 0.00
1:52 pm 13:52 Cloudy 36 2.2 22 -5.6 57 57 E 10 17 30.11 1020 10 16 0.00 0.00
2:52 pm 14:52 Cloudy with Light Rain 36 2.2 22 -5.6 57 57 NE 10 17 30.10 1019 10 16 0.00 0.03
3:28 pm 15:28 Cloudy 36 2.2 25 -3.9 64 64 NE 7 11 30.13 1020 7 11 0.00 0.03
3:52 pm 15:52 Cloudy 35 1.7 25 -3.9 67 67 NNE 10 17 30.11 1020 8 13 0.01 0.25
4:24 pm 16:24 Cloudy 34 1.1 26 -3.3 73 73 NE 12 19 30.12 1020 5 8 0.01 0.25
4:47 pm 16:47 Cloudy 34 1 27 -3 75 75 NNE 14 22 30.12 1020 5 8 0.03 0.76
4:52 pm 16:52 Cloudy 34 1.1 26 -3.3 73 73 NNE 14 22 30.10 1019 6 10 0.03 0.76
5:10 pm 17:10 Cloudy with Light Rain 34 1.1 26 -3.3 73 73 NNE 12 19 30.12 1020 6 10 0.00 0.03
5:25 pm 17:25 Cloudy 34 1.1 26 -3.3 73 73 NE 12 19 30.11 1020 9 14 0.01 0.25
5:33 pm 17:33 Cloudy with Light Snow 34 1.1 26 -3.3 73 73 NNE 12 19 30.11 1020 6 10 0.01 0.25
5:46 pm 17:46 Cloudy 34 1 27 -3 75 75 NNE 10 17 30.10 1019 8 13 0.01 0.25
5:52 pm 17:52 Cloudy 33 0.6 26 -3.3 75 75 NNE 14 22 30.08 1019 8 13 0.01 0.25
5:59 pm 17:59 Cloudy 33 0.6 26 -3.3 75 75 NNE 14 22 30.11 1020 8 13 0.00 0.03
6:43 pm 18:43 Cloudy 33 0.6 27 -2.8 78 78 NNE 13 20 30.11 1020 7 11 0.00 0.03
6:52 pm 18:52 Cloudy 32 0 27 -2.8 82 82 NNE 14 22 30.09 1019 7 11 0.01 0.25
6:56 pm 18:56 Cloudy with Light Snow 32 0 27 -2.8 82 82 NE 14 22 30.13 1020 4 6 0.00 0.03
7:52 pm 19:52 Cloudy with Light Snow 32 0 27 -2.8 82 82 NE 15 24 30.10 1019 5 8 0.01 0.25
8:17 pm 20:17 Cloudy 32 0 27 -2.8 82 82 NE 12 19 30.14 1021 5 8 0.00 0.03
8:40 pm 20:40 Cloudy with Mist and Fog 31 -0.6 27 -2.8 85 85 NE 16 26 30.14 1021 5 8 0.01 0.25
8:52 pm 20:52 Cloudy with Mist and Fog 31 -0.6 27 -2.8 85 85 NE 15 24 30.09 1019 5 8 0.01 0.25
9:02 pm 21:02 Cloudy with Light Snow 31 -0.6 27 -2.8 85 85 NE 12 19 30.12 1020 5 8 0.00 0.03
9:23 pm 21:23 Cloudy with Mist and Fog 31 -0.6 28 -2.2 89 89 ENE 13 20 30.12 1020 6 10 0.00 0.03
9:52 pm 21:52 Cloudy 31 -0.6 27 -2.8 85 85 NE 10 17 30.09 1019 7 11 0.00 0.03
10:02 pm 22:02 Cloudy 31 -0.6 27 -2.8 85 85 NE 9 15 30.14 1021 7 11 0.00 0.03
10:11 pm 22:11 Cloudy with Mist and Fog 31 -0.6 27 -2.8 85 85 NE 9 15 30.14 1021 6 10 0.00 0.03
10:52 pm 22:52 Cloudy 31 -0.6 27 -2.8 85 85 ENE 9 15 30.11 1020 8 13 0.00 0.03
11:52 pm 23:52 Cloudy 31 -0.6 27 -2.8 85 85 NE 10 17 30.11 1020 8 13 0.00 0.00

Powered by AerisWeather